Brenham, TX

9:07 AM CDT on May 24, 2018 (GMT -0500)
Brenham

Weather History for K11R - December, 2012

Change the Weather History Date:

Monday, December 24, 2012

  Actual Average (KCLL) Record (KCLL)
Temperature  
Mean Temperature 58 °F -  
Max Temperature 69 °F 59 °F 83 °F (1955)
Min Temperature 48 °F 37 °F 11 °F (1989)
Degree Days  
Heating Degree Days 6    
Growing Degree Days 8 (Base 50)    
Moisture  
Dew Point 40 °F    
Average Humidity 51    
Maximum Humidity 88    
Minimum Humidity 23    
Precipitation  
Precipitation 0.00 in - - ()
Sea Level Pressure  
Sea Level Pressure 29.89 in    
Wind  
Wind Speed 5 mph (NNW)    
Max Wind Speed 9 mph    
Max Gust Speed -    
Visibility 10 miles    
Events      
Averages and records for this station are not official NWS values.
T = Trace of Precipitation, MM = Missing Value Source: NWS Daily Summary

Daily Weather History Graph

Daily Weather History Graph

Search for Another Location

Airport or City:

Astronomy

Dec. 24, 2012 Rise Set
Actual Time 7:19 AM CST 5:31 PM CST
Civil Twilight 6:52 AM CST 5:57 PM CST
Nautical Twilight 6:22 AM CST 6:27 PM CST
Astronomical Twilight 5:53 AM CST 6:57 PM CST
Moon 2:55 PM CST 4:04 AM CST
Length of Visible Light 11h 05m
Length of Day
10h 12m
Waxing Gibbous, 88% of the Moon is Illuminated
Dec 24
Waxing Gibbous
Dec 28
Full
Jan 4
Last Quarter
Jan 11
New
Jan 18
First Quarter

Hourly Weather History & Observations

Time (CST) Temp. Dew Point Humidity Pressure Visibility Wind Dir Wind Speed Gust Speed Precip Events Conditions
12:15 AM 64.4 °F 55.4 °F 73% 29.92 in 10.0 mi SW 4.6 mph - N/A   Clear
12:35 AM 64.4 °F 55.4 °F 73% 29.91 in 10.0 mi SW 6.9 mph - N/A   Clear
12:55 AM 64.4 °F 55.4 °F 73% 29.90 in 10.0 mi SW 5.8 mph - N/A   Clear
1:15 AM 64.4 °F 55.4 °F 73% 29.91 in 10.0 mi SW 4.6 mph - N/A   Clear
1:35 AM 64.4 °F 55.4 °F 73% 29.91 in 10.0 mi West 3.5 mph - N/A   Clear
1:55 AM 62.6 °F 55.4 °F 77% 29.92 in 10.0 mi West 4.6 mph - N/A   Clear
2:15 AM 62.6 °F 53.6 °F 72% 29.91 in 10.0 mi WSW 3.5 mph - N/A   Clear
2:35 AM 62.6 °F 53.6 °F 72% 29.91 in 10.0 mi West 3.5 mph - N/A   Clear
2:55 AM 62.6 °F 53.6 °F 72% 29.91 in 10.0 mi West 5.8 mph - N/A   Clear
3:15 AM 62.6 °F 53.6 °F 72% 29.91 in 10.0 mi WSW 3.5 mph - N/A   Clear
3:35 AM 62.6 °F 53.6 °F 72% 29.91 in 10.0 mi West 4.6 mph - N/A   Clear
3:55 AM 62.6 °F 53.6 °F 72% 29.92 in 10.0 mi WNW 3.5 mph - N/A   Clear
4:15 AM 60.8 °F 51.8 °F 72% 29.92 in 10.0 mi WNW 5.8 mph - N/A   Clear
4:35 AM 59.0 °F 51.8 °F 77% 29.92 in 10.0 mi NW 5.8 mph - N/A   Clear
4:55 AM 59.0 °F 51.8 °F 77% 29.92 in 10.0 mi WNW 5.8 mph - N/A   Clear
5:15 AM 57.2 °F 51.8 °F 82% 29.93 in 10.0 mi NW 5.8 mph - N/A   Clear
5:35 AM 57.2 °F 51.8 °F 82% 29.93 in 10.0 mi NW 4.6 mph - N/A   Clear
5:55 AM 55.4 °F 51.8 °F 88% 29.94 in 10.0 mi NNW 6.9 mph - N/A   Clear
6:15 AM 55.4 °F 51.8 °F 88% 29.95 in 10.0 mi NNW 8.1 mph - N/A   Clear
6:35 AM 53.6 °F 50.0 °F 88% 29.96 in 10.0 mi NNW 6.9 mph - N/A   Clear
6:55 AM 51.8 °F 46.4 °F 82% 29.98 in 10.0 mi NNW 5.8 mph - N/A   Clear
7:15 AM 50.0 °F 42.8 °F 76% 29.99 in 10.0 mi North 6.9 mph - N/A   Clear
7:35 AM 48.2 °F 41.0 °F 76% 30.00 in 10.0 mi North 4.6 mph - N/A   Clear
7:55 AM 48.2 °F 39.2 °F 71% 30.00 in 10.0 mi North 4.6 mph - N/A   Clear
8:15 AM 50.0 °F 39.2 °F 66% 30.01 in 10.0 mi North 4.6 mph - N/A   Clear
8:35 AM 51.8 °F 37.4 °F 58% 30.00 in 10.0 mi North 5.8 mph - N/A   Clear
8:55 AM 51.8 °F 37.4 °F 58% 30.00 in 10.0 mi North 8.1 mph - N/A   Clear
9:15 AM 53.6 °F 35.6 °F 51% 30.00 in 10.0 mi North 9.2 mph - N/A   Clear
9:35 AM 53.6 °F 35.6 °F 51% 30.00 in 10.0 mi North 9.2 mph - N/A   Clear
9:55 AM 55.4 °F 33.8 °F 44% 30.00 in 10.0 mi NNE 8.1 mph - N/A   Clear
10:15 AM 55.4 °F 33.8 °F 44% 30.01 in 10.0 mi NNE 6.9 mph - N/A   Clear
10:35 AM 59.0 °F 33.8 °F 39% 30.01 in 10.0 mi NNE 6.9 mph - N/A   Clear
10:55 AM 59.0 °F 35.6 °F 42% 30.00 in 10.0 mi North 6.9 mph - N/A   Clear
11:15 AM 59.0 °F 35.6 °F 42% 30.00 in 10.0 mi North 9.2 mph - N/A   Clear
11:35 AM 60.8 °F 35.6 °F 39% 29.98 in 10.0 mi North 6.9 mph - N/A   Clear
11:55 AM 60.8 °F 33.8 °F 36% 29.97 in 10.0 mi North 4.6 mph - N/A   Clear
12:15 PM 62.6 °F 32.0 °F 32% 29.96 in 10.0 mi North 5.8 mph - N/A   Clear
12:35 PM 62.6 °F 32.0 °F 32% 29.95 in 10.0 mi North 8.1 mph - N/A   Clear
12:55 PM 64.4 °F 32.0 °F 30% 29.93 in 10.0 mi North 5.8 mph - N/A   Clear
1:15 PM 64.4 °F 32.0 °F 30% 29.92 in 10.0 mi North 8.1 mph - N/A   Clear
1:35 PM 64.4 °F 32.0 °F 30% 29.90 in 10.0 mi North 9.2 mph - N/A   Clear
1:55 PM 66.2 °F 32.0 °F 28% 29.89 in 10.0 mi North 5.8 mph - N/A   Clear
2:15 PM 68.0 °F 32.0 °F 26% 29.88 in 10.0 mi North 5.8 mph - N/A   Clear
2:35 PM 68.0 °F 30.2 °F 24% 29.87 in 10.0 mi NNE 4.6 mph - N/A   Clear
2:55 PM 68.0 °F 30.2 °F 24% 29.87 in 10.0 mi North 4.6 mph - N/A   Clear
3:15 PM 68.0 °F 30.2 °F 24% 29.86 in 10.0 mi North 3.5 mph - N/A   Clear
3:35 PM 68.0 °F 30.2 °F 24% 29.85 in 10.0 mi Calm Calm - N/A   Clear
3:55 PM 68.0 °F 30.2 °F 24% 29.84 in 10.0 mi NNE 3.5 mph - N/A   Clear
4:15 PM 69.8 °F 30.2 °F 23% 29.84 in 10.0 mi Calm Calm - N/A   Clear
4:35 PM 69.8 °F 30.2 °F 23% 29.83 in 10.0 mi ENE 3.5 mph - N/A   Clear
4:55 PM 68.0 °F 32.0 °F 26% 29.83 in 10.0 mi ENE 3.5 mph - N/A   Clear
5:15 PM 68.0 °F 32.0 °F 26% 29.82 in 10.0 mi ENE 3.5 mph - N/A   Clear
5:35 PM 64.4 °F 32.0 °F 30% 29.82 in 10.0 mi Calm Calm - N/A   Clear
5:55 PM 62.6 °F 32.0 °F 32% 29.82 in 10.0 mi Calm Calm - N/A   Clear
6:15 PM 62.6 °F 32.0 °F 32% 29.82 in 10.0 mi Calm Calm - N/A   Clear
6:35 PM 60.8 °F 33.8 °F 36% 29.81 in 10.0 mi ENE 3.5 mph - N/A   Clear
6:55 PM 60.8 °F 33.8 °F 36% 29.80 in 10.0 mi ENE 3.5 mph - N/A   Clear
7:15 PM 60.8 °F 33.8 °F 36% 29.80 in 10.0 mi Calm Calm - N/A   Clear
7:35 PM 59.0 °F 33.8 °F 39% 29.80 in 10.0 mi Calm Calm - N/A   Clear
7:55 PM 59.0 °F 33.8 °F 39% 29.80 in 10.0 mi Calm Calm - N/A   Clear
8:15 PM 59.0 °F 35.6 °F 42% 29.80 in 10.0 mi Calm Calm - N/A   Clear
8:35 PM 57.2 °F 37.4 °F 48% 29.80 in 10.0 mi Calm Calm - N/A   Clear
8:55 PM 59.0 °F 37.4 °F 45% 29.79 in 10.0 mi Calm Calm - N/A   Clear
9:15 PM 59.0 °F 35.6 °F 42% 29.79 in 10.0 mi Calm Calm - N/A   Clear
9:35 PM 59.0 °F 35.6 °F 42% 29.79 in 10.0 mi Calm Calm - N/A   Clear
9:55 PM 59.0 °F 35.6 °F 42% 29.79 in 10.0 mi Calm Calm - N/A   Scattered Clouds
10:15 PM 55.4 °F 39.2 °F 54% 29.77 in 10.0 mi Calm Calm - N/A   Mostly Cloudy
10:35 PM 59.0 °F 41.0 °F 51% 29.77 in 10.0 mi Calm Calm - N/A   Overcast
10:55 PM 60.8 °F 39.2 °F 45% 29.77 in 10.0 mi Calm Calm - N/A   Overcast
11:15 PM 60.8 °F 37.4 °F 42% 29.77 in 10.0 mi Calm Calm - N/A   Overcast
11:35 PM 60.8 °F 39.2 °F 45% 29.76 in 10.0 mi Calm Calm - N/A   Overcast
11:55 PM 60.8 °F 41.0 °F 48% 29.76 in 10.0 mi Calm Calm - N/A   Overcast